User: anonymous   Login
Location: Ciudad Delicias
(28.2170°N, 105.4670°W)
Time: 22:26:50
(UTC-07:00)
Language:

ETS-7 - Orbit

View from above orbital plane
View from above orbital plane
View from above satellite
View from above satellite

Ground track
Ground track

The orbit data is extracted from the following two-line orbital elements,

1 25064U 97074B   14330.35686094  .00036684  00000-0  51011-3 0  3123
2 25064 034.9608 282.8284 0004608 206.1632 289.1106 15.55914235946377
Epoch (UTC): 26 November 2014 08:33:52
Eccentricity: 0.0004608
inclination: 34.9608°
perigee height: 396 km
apogee height: 402 km
right ascension of ascending node: 282.8284°
argument of perigee: 206.1632°
revolutions per day: 15.55914235
mean anomaly at epoch: 289.1106°
orbit number at epoch: 94637

The dashed part of the orbit path shows where the satellite is in the earth's shadow,  

DLR